www.pogodaiklimat.ru
ПОГОДА в Нежине

Архив погоды в Нежине (Черниговская область, Украина)

Время
(UTC), дата
06 6.06
15 6.06
18 6.06
21 6.06
00 7.06
03 7.06
06 7.06
09 7.06
12 7.06
18 7.06
21 7.06
00 8.06
03 8.06
06 8.06
09 8.06
15 8.06
18 8.06
21 8.06
00 9.06
03 9.06
06 9.06
09 9.06
12 9.06
15 9.06
18 9.06
21 9.06
00 10.06
03 10.06
06 10.06
09 10.06
12 10.06
15 10.06
18 10.06
21 10.06
00 11.06
03 11.06
06 11.06
09 11.06
12 11.06
15 11.06
18 11.06
21 11.06
00 12.06
03 12.06
06 12.06
09 12.06
12 12.06
15 12.06
21 12.06
00 13.06
Ветер
(напр.,м/с)
Видим. Явления Облачность Т
(С)
Тd
(С)
f
(%)
Тe
(С)
Тes
(С)
Комфортность P
(гПа)
Po
(гПа)
Тmin
(С)
Tmax
(С)
R
(мм)
R24
(мм)
S
(см)
З 3 н/о в посл. час ливневой дождь 8 баллов +17.9 +17.1 95 +18 +18 1009.4 994.7
З 3 н/о 6 баллов +20.7 +18.3 86 +25 +25 комфорт 1011.9 997.3
штиль 0 н/о 3 балла +19.6 +17.0 85 +22 +22 комфорт 1013.4 998.7
штиль 0 н/о дымка ясно +16.5 +15.5 94 +16 +16 1013.5 998.7
З 2 н/о дымка ясно +16.5 +15.2 92 +17 +17 1014.9 1000.0
СЗ 1 н/о дымка ясно +15.6 +14.5 93 +16 +16 1014.9 1000.0
СЗ 2 н/о 1 балл +19.8 +16.4 81 +23 +23 комфорт 1016.0 1001.3
СЗ 3 н/о 8 баллов +23 +16.5 67 +28 +28 душно 1015.8 1001.3
СЗ 3 н/о 8 баллов +24.9 +15.5 56 +28 +28 жарко 1015.8 1001.3
штиль 0 н/о 5 баллов +21.2 +16.4 74 +25 +25 комфорт 1014.6 1000.0
штиль 0 н/о дымка 8 баллов +18.2 +16.9 92 +19 +19 1014.8 1000.0
штиль 0 н/о дымка 5 баллов +17.1 +16.3 95 +17 +17 1014.8 1000.0
ЮЗ 1 н/о дымка 3 балла +16.5 +15.7 95 +17 +17 1013.5 998.7
Ю 2 н/о 8 баллов +21.2 +17.2 78 +25 +25 комфорт 1013.3 998.7
З 4 н/о 8 баллов +24.9 +17.4 63 +29 +29 душно 1011.7 997.3
З 3 н/о 6 баллов +24.4 +14.8 55 +27 +27 жарко 1010.4 996.0
СЗ 2 н/о 8 баллов +19.5 +13.9 70 +22 +22 комфорт 1012.0 997.3
СЗ 1 н/о ясно +17.5 +13.8 79 +19 +19 1012.1 997.3
СЗ 1 н/о ясно +14.3 +12.3 88 +15 +15 1013.7 998.7
штиль 0 н/о дымка ясно +13.2 +12.7 97 +13 +13 1012.3 997.3
ЮВ 1 н/о 3 балла +19.4 +14.0 71 +22 +22 комфорт 1012.0 997.3
СЗ 2 н/о 3 балла +22.3 +11.7 51 +25 +25 комфорт 1011.8 997.3
ЮЗ 2 н/о 8 баллов +24.8 +13.0 48 +27 +27 жарко 1010.4 996.0
штиль 0 н/о 8 баллов +23.9 +14.0 54 +26 +26 жарко 1009.1 994.7
штиль 0 н/о 8 баллов +21.8 +15.6 68 +25 +25 комфорт 1009.2 994.7
ЮВ 2 н/о 8 баллов +19.9 +14.5 71 +23 +23 комфорт 1009.3 994.7
ЮВ 1 н/о 8 баллов +18.9 +14.6 76 +21 +21 комфорт 1009.4 994.7
ЮВ 2 н/о слаб. ливневой дождь 9 баллов +17.8 +16.7 93 +18 +18 1009.4 994.7
Ю 3 н/о 9 баллов +21.7 +17.7 78 +26 +26 душно 1009.2 994.7
ЮВ 3 н/о 8 баллов +23.6 +18.9 75 +28 +28 душно 1009.1 994.7
Ю 3 н/о 8 баллов +25.7 +19.6 69 +31 +31 очень душно 1007.6 993.3
Ю 4 н/о 9 баллов +26 +19.4 67 +31 +31 очень душно 1006.2 992.0
штиль 0 н/о гроза без осадков 8 баллов +21.7 +16.6 73 +26 +26 душно 1006.5 992.0
штиль 0 н/о зарница 4 балла +20.6 +19.6 94 +25 +25 комфорт 1005.2 990.7
Ю 2 н/о 3 балла +21.1 +19.0 88 +25 +25 комфорт 1005.2 990.7
Ю 3 н/о 8 баллов +19.9 +18.0 89 +23 +23 комфорт 1005.2 990.7
ЮВ 3 н/о в посл. час ливневой дождь 10 баллов +18.6 +17.8 95 +20 +20 1006.6 992.0
Ю 4 н/о 10 баллов +20.8 +18.9 89 +25 +25 комфорт 1007.8 993.3
Ю 3 н/о 6 баллов +25 +20.3 75 +31 +31 очень душно 1006.3 992.0
Ю 3 н/о 4 балла +27.4 +20.7 67 +34 +34 очень душно 1006.2 992.0
штиль 0 н/о в посл. час гроза 6 баллов +20.3 +18.2 88 +24 +24 комфорт 1007.8 993.3
ЮВ 2 н/о гроза, ливневой дождь 10 баллов +20 +17.6 86 +24 +24 комфорт 1007.9 993.3
штиль 0 н/о зарница 8 баллов +18.8 +18.0 95 +20 +20 1006.6 992.0
В 3 н/о слаб. ливневой дождь 10 баллов +18.7 +18.0 96 +20 +20 1006.6 992.0
ЮВ 5 н/о 8 баллов +20.9 +17.7 82 +25 +25 комфорт 1006.5 992.0
ЮВ 5 н/о 9 баллов +22.1 +19.1 83 +28 +28 душно 1005.1 990.7
ЮЗ 3 н/о 9 баллов +23.7 +19.8 79 +29 +29 душно 1003.6 989.3
СЗ 4 н/о слаб. ливневой дождь 10 баллов +18 +17.2 95 +18 +18 1005.3 990.7
СЗ 4 н/о слаб. ливневой дождь 10 баллов +14.6 +14.1 97 +13 +13 1009.6 994.7
СЗ 3 н/о дымка 3 балла +14.6 +13.3 92 +14 +14 1010.9 996.0
Местоположение метеостанции Нежин (Черниговская область, Украина): широта 51.05 долгота 31.90 высота над уровнем моря 126 м.
В архиве по умолчанию представлена погода в Нежине за последнюю неделю. Архивные данные за месяц целиком и за предыдущие месяцы, начиная с января 2011 года, Вы можете получить, выбрав интересующий диапазон дат из раскрывающегося списка и нажав кнопку "Найти!".
*Определитесь, кто Вы:
Внимание! Время в таблицах - всемирное. Для получения местного времени необходимо прибавить поправку, которая равна 2 ч.
Некоторые строки с данными для отдельных станций могут быть выделены курсивом. Это означает, что фактические данные отсутствуют по различным причинам, а приведенные значения являются расчетными модельными данными для данного пункта наблюдений.
Смотрите также архив погоды в соседних городах и на ближайших метеорологических станциях:
Партнеры нашего сайта:      
Пояснения к столбцам:
  • Ветер - указаны скорость ветра в м/с - средняя за 10 мин, порывы в срок и между сроками (в фигурных скобках) и направление, откуда дует ветер: С - северный,
  • СВ - северо-восточный, В - восточный, ЮВ - юго-восточный, Ю - южный, ЮЗ - юго-западный, З - западный, СЗ - северо-западный.
  • Видимость - горизонтальная дальность видимости в метрах или километрах. При видимости от 1 до 10 км при отсутствии осадков обычно наблюдается дымка, при ухудшении видимости до 1 км и менее - туман. В сухую погоду видимость может ухудшаться дымом, пылью или мглою.
  • Явления - указаны атмосферные явления, наблюдавшиеся в срок или в последний час перед сроком; фигурными скобками обозначены явления, наблюдавшиеся между сроками (за 1-3 часа до срока); квадратными скобками обозначены град или гололедные отложения с указанием их диаметра в мм.
  • Облачность - указаны через наклонную черту общая и нижняя облачность в баллах и высота нижней границы облаков в метрах; квадратными скобками обозначены формы облаков: Ci - перистые, Cs - перисто-слоистые, Cc - перисто-кучевые, Ac - высококучевые, As - высокослоистые, Sc - слоисто-кучевые, Ns - слоисто-дождевые, Cu - кучевые, Cb - кучево-дождевые. Подробнее классификацию облаков см. в Атласе облаков (PDF).
  • T - Температура воздуха - температура, измеренная на высоте 2 м над землей.
  • Td - Температура точки росы - температура, при понижении до которой содержащийся в воздухе водяной пар достигнет насыщения.
  • f - Относительная влажность воздуха - влажноcть воздуха, измеренная на высоте 2 м над землей.
  • Te - Эффективная температура - температура, которую ощущает одетый по сезону человек в тени. Характеристика душности погоды. При расчете учитывается влияние влажности воздуха и скорости ветра на теплоощущения человека.
  • Tes - Эффективная температура на солнце - температура, которую ощущает человек, с поправкой на солнечный нагрев. Характеристика знойности погоды. Зависит от высоты солнца над горизонтом, облачности и скорости ветра. Ночью, в пасмурную погоду, а также при ветре 12 м/с и более поправка равна нулю.
  • P - Атмосферное давление - приведенное к уровню моря атмосферное давление.
  • Po - Атмосферное давление - измеренное на уровне метеостанции атмосферное давление.
  • Tmin - Минимальная температура - минимум температуры воздуха на высоте 2 м над землей.
  • Tmax - Максимальная температура - максимум температуры воздуха на высоте 2 м над землей.
  • R - Количество осадков - Количество выпавших осадков за период времени, мм. При наведении курсора мыши на число - период времени, за который выпало указанное количество осадков.
  • R24 - Количество осадков - Количество выпавших осадков за 24 часа, мм.
  • S - Снежный покров - Высота снежного покрова, см. При наведении курсора мыши на число - состояние снежного покрова и степень покрытия местности в баллах.